Amargosa Valley, NV

10:11 AM PST on February 27, 2017 (GMT -0800)
Mercury

Weather History for KDRA - September, 2013

Change the Weather History Date:

Thursday, September 19, 2013

  Actual Average Record
Temperature  
Mean Temperature 78 °F 74 °F  
Max Temperature 91 °F 89 °F 98 °F (2000)
Min Temperature 66 °F 60 °F 46 °F (1978)
Degree Days  
Heating Degree Days 0    
Cooling Degree Days 14    
Growing Degree Days 28 (Base 50)    
Moisture  
Dew Point 23 °F    
Average Humidity 13    
Maximum Humidity 19    
Minimum Humidity 4    
Precipitation  
Precipitation 0.00 in 0.02 in 0.27 in (1989)
Month to date precipitation 0.37  
Year to date precipitation 4.34  
Sea Level Pressure  
Sea Level Pressure 29.78 in    
Wind  
Wind Speed 10 mph (ENE)    
Max Wind Speed 17 mph    
Max Gust Speed -    
Visibility 10 miles    
Events      
T = Trace of Precipitation, MM = Missing Value Source: NWS Daily Summary

Daily Weather History Graph

Daily Weather History Graph

Search for Another Location

Airport or City:

Trip Planner

Search our weather history database for the weather conditions in past years. The results will help you decide how hot, cold, wet, or windy it might be!

Date:

Astronomy

Sep. 19, 2013 Rise Set
Actual Time 6:29 AM PDT 6:44 PM PDT
Civil Twilight 6:03 AM PDT 7:10 PM PDT
Nautical Twilight 5:33 AM PDT 7:40 PM PDT
Astronomical Twilight 5:02 AM PDT 8:11 PM PDT
Moon 6:48 PM PDT (9/19) 6:42 AM PDT (9/19)
Length of Visible Light 13h 06m
Length of Day
12h 15m
Full, 100% of the Moon is Illuminated
Sep 19
Full
Sep 26
Last Quarter
Oct 4
New
Oct 11
First Quarter
Oct 18
Full

Hourly Weather History & Observations

Time (PDT) Temp. Dew Point Humidity Pressure Visibility Wind Dir Wind Speed Gust Speed Precip Events Conditions
12:52 AM 72.0 °F 18.0 °F 13% 29.76 in 10.0 mi North 12.7 mph - N/A   Clear
1:52 AM 72.0 °F 18.0 °F 13% 29.77 in 10.0 mi NE 15.0 mph - N/A   Clear
2:52 AM 70.0 °F 19.0 °F 14% 29.77 in 10.0 mi ENE 5.8 mph - N/A   Clear
3:52 AM 70.0 °F 18.0 °F 14% 29.77 in 10.0 mi NE 13.8 mph - N/A   Clear
4:52 AM 69.1 °F 19.0 °F 15% 29.78 in 10.0 mi NE 13.8 mph - N/A   Clear
5:52 AM 66.9 °F 19.9 °F 17% 29.81 in 10.0 mi NE 10.4 mph - N/A   Clear
6:52 AM 66.9 °F 19.9 °F 17% 29.83 in 10.0 mi NE 12.7 mph - N/A   Clear
7:52 AM 70.0 °F 21.0 °F 16% 29.85 in 10.0 mi NE 12.7 mph - N/A   Clear
8:52 AM 73.0 °F 21.0 °F 14% 29.86 in 10.0 mi NNE 16.1 mph - N/A   Clear
9:52 AM 77.0 °F 23.0 °F 13% 29.86 in 10.0 mi NE 17.3 mph - N/A   Clear
10:52 AM 82.0 °F 26.1 °F 13% 29.84 in 10.0 mi NNE 13.8 mph - N/A   Clear
11:52 AM 84.9 °F 26.1 °F 12% 29.82 in 10.0 mi NNE 11.5 mph - N/A   Clear
12:52 PM 86.0 °F 24.1 °F 10% 29.81 in 10.0 mi SE 6.9 mph - N/A   Clear
1:52 PM 88.0 °F 25.0 °F 10% 29.78 in 10.0 mi Calm Calm - N/A   Clear
2:52 PM 90.0 °F 26.1 °F 10% 29.76 in 10.0 mi NE 5.8 mph - N/A   Clear
3:52 PM 91.0 °F 21.9 °F 8% 29.73 in 10.0 mi NNE 11.5 mph - N/A   Clear
4:52 PM 88.0 °F 23.0 °F 9% 29.73 in 10.0 mi East 6.9 mph - N/A   Clear
5:52 PM 87.1 °F 23.0 °F 10% 29.73 in 10.0 mi ESE 3.5 mph - N/A   Clear
6:52 PM 82.9 °F 25.0 °F 12% 29.74 in 10.0 mi East 5.8 mph - N/A   Clear
7:52 PM 75.0 °F 27.0 °F 17% 29.75 in 10.0 mi ESE 5.8 mph - N/A   Clear
8:52 PM 73.9 °F 27.0 °F 18% 29.77 in 10.0 mi ESE 3.5 mph - N/A   Clear
9:52 PM 73.9 °F 26.1 °F 17% 29.78 in 10.0 mi Calm Calm - N/A   Clear
10:52 PM 70.0 °F 26.1 °F 19% 29.78 in 10.0 mi Calm Calm - N/A   Clear
11:52 PM 70.0 °F 24.1 °F 18% 29.77 in 10.0 mi Calm Calm - N/A   Clear